This is the latest recevied weather packets stored in our database for station/object DW9280. If no packets are shown the sender has not sent any weather packets the latest 10 day(s).
| Time | Temp. | Humidity | Pressure | Rain* | Wind** | Luminosity | Snow |
|---|---|---|---|---|---|---|---|
| 1788090842 | 19.44° C | 94% | 1010 hPa | 0 mm | - | 394 W/m² | - |
| 1788090543 | 19.44° C | 95% | 1009.9 hPa | 0 mm | - | 327 W/m² | - |
| 1788090242 | 19.44° C | 96% | 1009.8 hPa | 0 mm | - | 288 W/m² | - |
| 1788089942 | 19.44° C | 97% | 1009.9 hPa | 0.25 mm | - | 396 W/m² | - |
| 1788089642 | 19.44° C | 97% | 1009.8 hPa | 0.51 mm | - | 492 W/m² | - |
| 1788089343 | 19.44° C | 97% | 1009.7 hPa | 1.02 mm | - | 777 W/m² | - |
| 1788089042 | 19.44° C | 98% | 1009.6 hPa | 1.52 mm | - | 325 W/m² | - |
| 1788088741 | 19.44° C | 97% | 1009.6 hPa | 2.03 mm | - | 330 W/m² | - |
| 1788088442 | 19.44° C | 98% | 1009.4 hPa | 2.79 mm | - | 817 W/m² | - |
| 1788088143 | 18.89° C | 98% | 1009.5 hPa | 4.32 mm | - | 399 W/m² | - |
| 1788087880 | 18.89° C | 97% | 1009.4 hPa | 6.1 mm | - | 355 W/m² | - |
| 1788087542 | 18.33° C | 97% | 1009.3 hPa | 7.62 mm | - | 313 W/m² | - |
| 1788087243 | 18.33° C | 97% | 1009.2 hPa | 8.13 mm | - | 265 W/m² | - |
| 1788086945 | 18.33° C | 97% | 1009.3 hPa | 8.89 mm | - | 60 W/m² | - |
| 1788086645 | 18.33° C | 97% | 1009.3 hPa | 9.91 mm | - | 100 W/m² | - |
| 1788086343 | 18.33° C | 97% | 1009.3 hPa | 10.67 mm | - | 118 W/m² | - |
| 1788086042 | 18.33° C | 97% | 1009.2 hPa | 12.7 mm | - | 98 W/m² | - |
| 1788085742 | 18.33° C | 97% | 1009.2 hPa | 13.97 mm | - | 111 W/m² | - |
| 1788085442 | 18.33° C | 97% | 1009.1 hPa | 14.22 mm | - | 77 W/m² | - |
| 1788085142 | 18.33° C | 97% | 1009 hPa | 13.97 mm | - | 67 W/m² | - |
| 1788084881 | 18.33° C | 97% | 1009 hPa | 13.46 mm | - | 67 W/m² | - |
| 1788084544 | 17.78° C | 97% | 1008.9 hPa | 11.68 mm | - | 69 W/m² | - |
| 1788084245 | 17.78° C | 97% | 1008.8 hPa | 10.16 mm | - | 83 W/m² | - |
| 1788083979 | 17.78° C | 97% | 1008.9 hPa | 8.64 mm | - | 58 W/m² | - |
| 1788083643 | 17.78° C | 97% | 1008.8 hPa | 8.38 mm | - | 83 W/m² | - |
* Rain latest hour (hover to see other rain measurements)
** Current wind speed in m/s (hover to see current wind gust speed)